Skip Page Navigation
NASA JPL Caltech
NASA Logo - Jet Propulsion Laboratory + View the NASA Portal
+ Center for Near-Earth Object Studies
JPL Home Earth Solar System Stars & Galaxies Technology
JPL Solar System Dynamics
BODIES ORBITS EPHEMERIDES TOOLS PHYSICAL DATA DISCOVERY FAQ SITE MAP
JPL Small-Body Database Browser
Search: [ help ]  
58535 Pattillo (1997 DP)
Classification: Main-belt Asteroid          SPK-ID: 2058535
Ephemeris | Orbit Diagram | Orbital Elements | Mission Design | Physical Parameters | Discovery Circumstances | Close-Approach Data ]

[ show orbit diagram ]
Orbital Elements at Epoch 2459000.5 (2020-May-31.0) TDB
Reference: JPL 16 (heliocentric ecliptic J2000)
 Element Value Uncertainty (1-sigma)   Units 
e .1350017209903182 5.7126e-08  
a 3.155196035501003 2.356e-08 au
q 2.729239140646539 1.771e-07 au
i 6.685493795761176 6.604e-06 deg
node 199.4429523510267 3.5017e-05 deg
peri 203.9666309660907 3.9678e-05 deg
M 147.4384478639242 2.0645e-05 deg
tp 2458162.109791210740
(2018-Feb-12.60979121)
0.00011258 TDB
period 2047.094767592058
5.60
2.2929e-05
6.278e-08
d
yr
n .1758589810785645 1.9697e-09 deg/d
Q 3.581152930355468 2.6741e-08 au
  Orbit Determination Parameters
   # obs. used (total)      540  
   data-arc span      8470 days (23.19 yr)  
   first obs. used      1997-02-16  
   last obs. used      2020-04-26  
   planetary ephem.      DE431  
   SB-pert. ephem.      SB431-N16  
   condition code      0  
   norm. resid. RMS      .62845  
   source      ORB  
   producer      Otto Matic  
   solution date      2020-May-20 11:36:40  

Additional Information
 Earth MOID = 1.7394 au 
 Jupiter MOID = 1.83443 au 
 T_jup = 3.182 
[ show covariance matrix ]

Ephemeris | Orbit Diagram | Orbital Elements | Mission Design | Physical Parameters | Discovery Circumstances | Close-Approach Data ]

Physical Parameter Table
Parameter Symbol Value Units Sigma Reference Notes
absolute magnitude H 14.9   n/a MPO250742  
rotation period rot_per 3.23 h n/a LCDB (Rev. 2019-August); Warner et al., 2009 Result based on less than full coverage, so that the period may be wrong by 30 percent or so.
Published Reference List:
[Erasmus, N.; McNeill, A.; Mommert, N.; Trilling, D.E.; et al. (2019) Ap. J. Suppl. Series 242, A15.]

58535 Pattillo           Discovered 1997 Feb. 16 at the George Observatory, Needville.
Leonard Pattillo (b. 1926), a founding member and former officer of the Fort Bend Astronomy Club, has tirelessly promoted astronomy to schools and the public through organized volunteer activities and "Astronomy on Wheels" outreach star parties.
NOTE: some special characters may not display properly (any characters within {} are an attempt to place the proper accent above a character)
Reference: 20040504/MPCPages.arcLast Updated: 2004-05-11

[ show close-approach data ]
Alternate Designations
 1997 DP = 2000 QK148 
Ephemeris | Orbit Diagram | Orbital Elements | Mission Design | Physical Parameters | Discovery Circumstances | Close-Approach Data ]
ABOUT SSD CREDITS/AWARDS PRIVACY/COPYRIGHT GLOSSARY LINKS
FirstGov 2020-Sep-26 09:09 UT
(server date/time)  
NASA Home Page
Site Manager:   Ryan S. Park
Webmaster  Alan B. Chamberlin